SCP
0 0 0 0 0 0 0 0 0 0 0 0 0 0 0 0 0 0 0 0 0 0 0 0 0 0 0 0 0 0 0 0 0 0 0 0 0 0 0 0 0 0 0 0 0 0 0 0 0
0 0 0 0 0 0 0 0 0 0 0 0 0 0 0 0 0 0 0 0 0 0 0 0 0 0 0 0 0 0 0 0 0 0 0 0 0 0 0 0 0 0 0 0 0 0 0 0 0
0 0 0 0 0 0 0 0 0 0 0 0 0 0 0 0 0 0 0 0 0 0 0 0 0 0 0 0 0 0 0 0 0 0 0 0 0 0 0 0 0 0 0 0 0 0 0 0 0
0 0 0 0 0 0 0 0 0 0 0 0 0 0 0 0 0 0 0 0 0 0 0 0 0 0 0 0 0 0 0 0 0 0 0 0 0 0 0 0 0 0 0 0 0 0 0 0 0
0 0 0 0 0 0 0 0 0 0 0 0 0 0 0 0 0 0 0 0 0 0 0 0 0 0 0 0 0 0 0 0 0 0 0 0 0 0 0 0 0 0 0 0 0 0 0 0 0
0 0 0 0 0 0 0 0 0 0 0 0 0 0 0 0 0 0 0 0 0 0 0 0 0 0 0 0 0 0 0 0 0 0 0 0 0 0 0 0 0 0 0 0 0 0 0 0 0
0 0 0 0 0 0 0 0 0 0 0 0 0 0 0 0 0 0 0 0 0 0 0 0 0 0 0 0 0 0 0 0 0 0 0 0 0 0 0 0 0 0 0 0 0 0 0 0 0
0 0 0 0 0 0 0 0 0 0 0 0 0 0 0 0 0 0 0 0 0 0 0 0 0 0 0 0 0 0 0 0 0 0 0 0 0 0 0 0 0 0 0 0 0 0 0 0 0
0 0 0 0 0 0 0 0 0 0 0 0 0 0 0 0 0 0 0 0 0 0 0 0 0 0 0 0 0 0 0 0 0 0 0 0 0 0 0 0 0 0 0 0 0 0 0 0 0
0 0 0 0 0 0 0 0 0 0 0 0 0 0 0 0 0 0 0 0 0 0 0 0 0 0 0 0 0 0 0 0 0 0 0 0 0 0 0 0 0 0 0 0 0 0 0 0 0
0 0 0 0 0 0 0 0 0 0 0 0 0 0 0 0 0 0 0 0 0 0 0 0 0 0 0 0 0 0 0 0 0 0 0 0 0 0 0 0 0 0 0 0 0 0 0 0 0
0 0 0 0 0 0 0 0 0 0 0 0 0 0 0 0 0 0 0 0 0 0 0 0 0 0 0 0 0 0 0 0 0 0 0 0 0 0 0 0 0 0 0 0 0 0 0 0 0
0 0 0 0 0 0 0 0 0 0 0 0 0 0 0 0 0 0 0 0 0 0 0 0 0 0 0 0 0 0 0 0 0 0 0 0 0 0 0 0 0 0 0 0 0 0 0 0 0
0 0 0 0 0 0 0 0 0 0 0 0 0 0 0 0 0 0 0 0 0 0 0 0 0 0 0 0 0 0 0 0 0 0 0 0 0 0 0 0 0 0 0 0 0 0 0 0 0
0 0 0 0 0 0 0 0 0 0 0 0 0 0 0 0 0 0 0 0 0 0 0 0 0 0 0 0 0 0 0 0 0 0 0 0 0 0 0 0 0 0 0 0 0 0 0 0 0
0 0 0 0 0 0 0 0 0 0 0 0 0 0 0 0 0 0 0 0 0 0 0 0 0 0 0 0 0 0 0 0 0 0 0 0 0 0 0 0 0 0 0 0 0 0 0 0 0
0 0 0 0 0 0 0 0 0 0 0 0 0 0 0 0 0 0 0 0 0 0 0 0 0 0 0 0 0 0 0 0 0 0 0 0 0 0 0 0 0 0 0 0 0 0 0 0 0
0 0 0 0 0 0 0 0 0 0 0 0 0 0 0 0 0 0 0 0 0 0 0 0 0 0 0 0 0 0 0 0 0 0 0 0 0 0 0 0 0 0 0 0 0 0 0 0 0
0 0 0 0 0 0 0 0 0 0 0 0 0 0 0 0 0 0 0 0 0 0 0 0 0 0 0 0 0 0 0 0 0 0 0 0 0 0 0 0 0 0 0 0 0 0 0 0 0
0 0 0 0 0 0 0 0 0 0 0 0 0 0 0 0 0 0 0 0 0 0 0 0 0 0 0 0 0 0 0 0 0 0 0 0 0 0 0 0 0 0 0 0 0 0 0 0 0
0 0 0 0 0 0 0 0 0 0 0 0 0 0 0 0 0 0 0 0 0 0 0 0 0 0 0 0 0 0 0 0 0 0 0 0 0 0 0 0 0 0 0 0 0 0 0 0 0
0 0 0 0 0 0 0 0 0 0 0 0 0 0 0 0 0 0 0 0 0 1 1 1 1 1 1 1 0 0 0 0 0 0 0 0 0 0 0 0 0 0 0 0 0 0 0 0 0
0 0 0 0 0 0 0 0 0 0 0 0 0 0 0 0 0 0 0 0 0 1 1 1 1 1 1 1 1 1 0 0 0 0 0 0 0 0 0 0 0 0 0 0 0 0 0 0 0
0 0 0 0 0 0 0 0 0 0 0 0 0 0 0 0 0 0 0 0 0 1 1 1 1 1 1 1 1 1 1 1 0 0 0 0 0 0 0 0 0 0 0 0 0 0 0 0 0
0 0 0 0 0 0 0 0 0 0 0 0 0 0 0 0 0 0 0 0 1 1 1 1 1 1 1 1 1 1 1 1 0 0 0 0 0 0 0 0 0 0 0 0 0 0 0 0 0
0 0 0 0 0 0 0 0 0 0 0 0 0 0 0 0 0 0 0 1 1 1 1 1 1 1 1 1 1 1 1 1 0 0 0 0 0 0 0 0 0 0 0 0 0 0 0 0 0
0 0 0 0 0 0 0 0 0 0 0 0 0 0 0 0 0 0 0 1 1 1 1 1 1 1 1 1 1 1 1 0 0 0 0 0 0 0 0 0 0 0 0 0 0 0 0 0 0
0 0 0 0 0 0 0 0 0 0 0 0 0 0 0 0 0 1 1 1 1 1 1 1 1 1 1 1 1 1 1 1 0 0 0 0 0 0 0 0 0 0 0 0 0 0 0 0 0
0 0 0 0 0 0 0 0 0 0 0 0 0 0 0 0 0 1 1 1 1 1 1 1 1 1 1 1 1 1 1 1 1 0 0 0 0 0 0 0 0 0 0 0 0 0 0 0 0
0 0 0 0 0 0 0 0 0 0 0 0 0 0 0 0 0 1 1 1 1 1 1 1 1 1 1 1 1 1 1 1 1 0 0 0 0 0 0 0 0 0 0 0 0 0 0 0 0
Wind_Speed
11 8 5 4 5 2 9 8 7 7 7 7 6 5 6 7 7 7 5 6 7 7 7 8 6 6 6 7 6 7 7 7 7 7 8 8 8 9 9 9 9 8 8 7 8 8 8 9 8
7 6 5 5 2 6 9 8 8 8 7 6 5 5 6 8 8 7 6 7 7 7 7 7 7 6 6 7 7 7 6 7 7 7 7 7 8 8 9 9 8 7 7 7 7 8 8 9 8
6 5 5 2 5 8 9 8 8 8 6 4 5 6 6 7 6 6 7 8 8 7 6 9 7 7 7 7 7 7 6 6 7 7 7 7 8 8 8 8 7 7 6 6 6 7 7 7 7
5 5 5 0 9 9 8 7 6 6 6 5 5 7 7 7 5 7 9 9 8 8 7 10 7 7 7 7 7 7 6 6 6 6 6 7 7 8 7 7 6 6 5 6 6 6 6 6 6
5 4 1 6 11 9 7 6 4 6 6 6 6 9 9 7 7 9 9 8 8 8 7 10 9 8 7 7 7 7 6 6 6 6 6 6 6 7 6 6 5 5 5 6 6 6 6 6 5
4 4 3 8 10 8 8 6 4 6 6 6 6 9 8 7 8 9 8 7 8 8 8 9 10 8 8 7 6 6 6 5 5 5 5 5 5 5 5 5 4 4 4 4 5 5 6 5 5
4 2 6 8 8 9 7 5 5 5 6 6 5 7 8 8 9 8 8 7 7 7 8 7 8 9 9 7 6 5 5 5 5 4 4 4 4 4 5 4 4 3 3 3 4 5 5 6 6
4 2 5 7 7 9 6 5 5 5 7 6 3 5 8 9 9 8 8 7 7 6 6 6 6 6 6 8 7 5 5 4 4 3 3 3 4 5 5 5 5 4 4 4 4 5 5 6 6
5 1 7 8 6 7 5 5 5 4 6 6 5 6 11 12 10 9 8 7 7 5 4 4 5 5 4 4 7 6 6 5 4 4 4 3 2 3 4 4 3 4 4 4 4 4 4 5 7
3 3 8 6 5 5 4 4 4 4 6 7 8 9 12 11 10 9 8 7 7 6 5 4 3 4 4 3 4 3 3 4 2 2 2 1 1 1 1 5 4 4 4 5 4 5 6 7 5
1 4 5 4 3 3 4 4 3 3 4 5 7 11 12 11 9 8 7 6 6 6 5 5 4 3 3 3 2 2 1 2 2 2 1 1 0 1 1 1 3 4 4 3 4 5 3 2 1
0 2 2 2 2 2 3 4 3 2 5 5 7 11 12 10 8 7 7 6 6 5 5 4 4 3 2 1 2 2 1 1 1 3 0 1 1 1 1 1 1 0 1 0 0 1 1 1 2
0 1 1 2 2 2 3 3 3 3 4 6 9 11 11 10 8 7 6 6 5 5 5 4 3 3 2 1 1 1 1 1 2 1 1 1 1 1 1 1 1 1 1 0 1 1 1 1 2
1 0 1 2 3 4 3 3 3 4 5 7 9 10 10 9 8 7 7 6 6 5 4 4 4 4 3 2 1 1 1 2 1 1 2 1 1 1 1 1 1 1 1 1 1 1 0 0 0
3 3 3 3 2 3 3 4 3 4 6 7 8 8 9 8 8 7 7 6 6 6 5 5 5 4 4 3 2 2 1 2 1 2 2 1 1 2 1 1 1 2 1 1 0 0 0 0 1
6 5 2 4 3 3 6 2 5 5 7 7 7 8 8 8 8 7 7 6 6 6 6 5 4 5 5 3 2 1 1 1 1 1 1 1 2 2 2 2 2 2 1 1 1 1 0 0 0
5 2 0 3 3 3 5 1 5 6 6 6 6 7 8 8 8 8 7 7 7 6 6 6 5 5 5 4 3 2 1 1 1 1 1 1 1 1 1 2 2 2 1 1 2 2 1 0 0
3 3 1 0 2 3 4 1 4 6 6 6 6 7 7 8 8 8 8 7 7 7 6 6 6 6 5 4 3 2 1 1 1 1 1 1 1 1 2 1 1 2 1 1 1 1 1 1 1
6 5 2 1 0 3 3 3 4 6 7 6 7 7 8 8 8 8 8 8 7 7 7 7 6 6 5 4 3 3 3 2 1 1 1 1 1 1 1 1 0 2 1 2 2 1 0 0 0
6 6 2 1 1 3 3 3 3 5 7 6 7 8 8 8 8 9 9 8 9 8 8 7 7 7 6 4 3 2 2 2 1 1 2 1 1 1 1 1 1 1 1 1 2 1 2 1 0
6 5 4 3 2 5 6 5 5 5 6 6 6 7 7 8 10 10 9 9 9 8 8 7 7 7 6 5 4 3 3 2 2 1 1 1 0 0 2 1 2 2 2 1 1 2 1 1 1
6 4 5 5 6 3 5 5 3 5 5 6 7 7 7 8 9 9 10 9 9 8 8 8 8 7 7 6 5 5 3 3 2 2 1 1 1 0 1 1 1 2 1 1 1 2 2 2 1
5 3 5 7 8 7 6 8 2 4 4 5 5 6 7 8 9 9 9 9 8 8 8 8 8 8 7 7 6 6 4 3 3 2 2 1 1 1 0 0 1 1 1 2 3 2 3 2 2
4 5 7 8 9 8 5 8 3 1 3 2 3 4 5 6 7 8 8 8 8 8 8 8 8 7 7 8 7 6 5 4 3 3 3 2 2 1 1 1 0 1 1 1 1 2 1 2 3
9 9 7 8 8 5 3 6 3 1 1 2 1 2 3 5 6 7 8 8 8 9 9 8 9 8 8 8 7 6 5 5 4 4 3 2 2 1 1 1 1 1 1 1 2 1 2 2 2
9 11 9 8 7 4 6 6 1 2 1 0 0 1 3 4 5 6 7 8 8 9 9 9 9 8 8 8 7 6 6 4 4 4 3 2 2 1 1 1 2 1 2 2 2 2 2 1 2
10 10 10 11 10 9 5 4 4 2 2 2 2 2 2 2 4 5 6 7 8 8 9 9 9 9 8 8 7 6 6 5 4 4 4 2 2 2 2 2 2 2 2 2 3 2 2 2 3
9 8 8 10 9 10 7 7 3 2 1 1 2 2 2 2 3 4 5 6 7 8 8 8 9 8 8 8 7 6 6 6 5 4 4 3 3 2 3 3 2 2 2 2 3 3 2 3 2
9 9 9 8 9 10 8 2 3 0 1 1 1 1 2 2 3 3 4 5 6 7 7 8 8 8 7 7 6 6 5 5 5 4 4 4 3 3 3 3 3 3 3 3 3 4 3 4 3
9 9 10 9 8 9 10 1 5 2 1 1 1 2 2 2 2 3 3 4 5 6 7 7 7 7 7 7 6 6 5 5 5 5 4 4 4 4 3 3 3 3 3 3 4 5 4 4 4
Wind_Direction
174 180 202 228 231 119 67 66 64 71 68 63 65 53 55 43 27 65 89 112 117 122 122 130 118 117 113 115 117 114 118 121 124 132 138 141 142 142 145 143 142 143 144 146 148 149 149 148 147
169 182 222 236 279 75 71 68 68 63 71 87 79 65 65 64 57 93 117 119 131 123 129 121 118 119 120 121 120 118 119 119 123 130 135 138 138 138 140 147 149 146 147 146 146 151 152 151 154
176 222 256 255 49 55 68 69 73 81 84 84 85 62 51 63 78 103 117 136 135 124 125 113 124 121 119 122 124 124 123 120 122 125 128 133 137 136 137 146 149 149 148 150 149 149 153 156 159
204 219 230 62 67 60 64 75 84 94 94 79 92 87 76 65 81 107 125 137 129 128 126 116 129 123 120 121 124 126 125 124 122 123 123 123 132 136 141 144 144 153 157 155 155 154 159 158 158
233 252 189 77 67 67 72 80 85 75 77 90 90 92 87 78 96 114 127 130 128 127 122 119 126 123 120 119 119 126 127 125 123 121 123 123 126 134 142 141 148 156 164 169 166 163 162 165 165
240 248 59 70 72 71 80 88 84 82 88 95 98 97 88 106 114 119 124 127 124 124 123 122 130 125 120 118 119 123 128 126 124 121 121 125 127 137 143 149 154 155 154 162 173 175 173 176 177
290 352 60 69 77 77 71 72 63 80 91 89 96 97 107 117 119 124 124 122 120 121 123 123 132 137 136 125 120 121 125 128 125 123 122 125 132 141 152 157 161 165 169 183 188 184 185 186 187
292 290 71 70 70 75 82 79 61 61 80 91 93 99 121 130 132 131 128 122 116 119 121 124 127 125 138 137 133 131 130 130 134 130 129 143 166 167 169 173 170 176 182 197 200 194 191 192 196
260 303 55 50 55 79 98 103 89 82 103 101 82 79 113 132 140 136 130 124 124 126 127 123 126 132 132 129 130 148 150 149 170 161 163 198 183 156 169 134 152 186 195 200 197 194 187 196 196
259 30 50 39 44 76 93 93 116 133 119 115 111 107 123 140 148 145 140 138 137 136 134 126 130 131 135 124 128 147 158 142 162 121 143 169 111 97 114 138 179 193 203 202 195 198 204 216 194
320 26 41 58 66 86 105 110 131 139 111 120 135 140 146 150 154 150 146 144 136 133 134 136 132 128 129 125 128 122 129 128 142 119 127 74 63 103 102 152 173 187 200 197 179 203 214 218 210
344 44 28 64 85 112 105 120 117 98 70 96 137 147 152 158 157 154 150 146 142 140 140 132 130 137 131 111 118 135 127 112 102 118 171 106 61 21 41 2 37 146 155 109 271 231 204 238 224
168 76 65 81 120 116 124 124 109 104 106 124 139 150 158 163 160 155 153 153 152 152 147 140 137 139 141 144 206 137 117 107 115 104 116 11 51 40 39 37 15 357 13 66 253 227 179 200 202
1 303 136 129 131 136 146 137 148 115 136 144 155 160 163 167 167 161 165 168 166 166 161 157 164 157 159 164 178 175 157 140 120 109 81 26 24 25 356 28 18 4 357 8 324 341 202 242 173
231 207 167 146 162 149 195 162 126 131 156 164 167 166 169 176 177 177 177 179 177 174 174 175 174 170 176 185 195 174 181 156 149 118 101 58 36 38 350 359 349 2 357 351 318 10 330 222 204
218 220 176 138 184 184 245 137 126 159 170 174 174 172 179 185 190 184 184 188 184 182 177 185 185 172 174 183 201 189 191 166 158 140 121 82 41 24 335 345 357 358 332 350 347 331 357 55 10
209 245 123 130 172 206 241 127 133 178 183 181 183 182 184 187 195 190 191 190 190 188 186 186 189 180 175 172 179 185 170 170 147 115 82 93 78 36 328 350 3 326 343 335 330 39 336 75 165
271 279 277 54 138 221 233 219 157 186 196 193 191 192 190 195 195 191 195 195 192 190 190 188 184 180 177 172 170 179 173 173 182 130 89 72 81 52 318 286 351 313 336 339 12 14 359 294 237
282 272 280 38 126 242 228 244 197 194 203 201 201 202 203 200 190 190 193 196 194 195 193 190 190 179 180 178 183 179 176 179 156 157 131 140 139 124 303 318 28 310 347 340 335 319 212 203 236
254 256 243 142 145 261 248 254 203 198 209 213 213 206 208 204 193 191 194 194 195 195 197 192 190 184 187 179 183 179 167 165 152 148 132 167 191 283 195 336 312 347 334 346 340 329 325 2 11
241 259 273 268 231 224 254 225 201 188 203 217 223 222 216 208 200 192 195 198 198 197 195 194 189 182 186 180 177 166 166 170 162 173 167 158 194 315 352 5 333 347 330 29 356 337 340 341 1
240 251 265 245 245 235 260 270 194 195 197 212 216 216 218 210 203 199 198 201 199 196 190 189 183 181 179 182 185 189 192 187 174 185 161 163 167 180 0 350 357 344 1 20 324 33 327 316 316
261 245 245 250 255 258 237 269 206 193 218 216 211 215 216 207 202 202 204 200 201 194 188 182 179 179 178 184 185 196 199 191 171 170 155 197 155 166 250 337 351 353 7 20 356 0 329 323 317
219 218 219 234 246 245 241 262 261 230 267 245 199 205 213 205 203 202 201 194 196 190 185 176 174 177 178 184 187 193 192 187 177 177 174 194 174 174 169 200 286 297 5 12 330 322 322 329 325
220 238 237 230 230 239 202 247 278 5 341 308 252 195 199 204 202 197 194 190 188 184 181 174 172 176 178 181 184 185 187 187 187 193 185 210 195 181 165 221 244 289 310 304 309 300 325 318 306
228 243 257 267 266 243 205 240 205 88 58 357 194 166 184 191 197 193 191 189 185 181 180 178 175 176 177 178 178 180 190 195 189 194 206 200 216 204 169 210 216 249 278 285 289 284 277 293 289
229 238 260 268 270 266 238 224 208 167 169 167 157 154 167 179 193 190 186 184 181 180 181 179 174 175 177 179 178 181 189 196 191 187 201 201 209 202 189 214 219 234 252 269 269 280 284 283 283
254 244 240 252 260 262 246 235 225 186 205 179 179 163 152 161 173 176 179 179 178 178 176 171 167 170 175 178 183 181 186 192 192 193 194 202 202 205 205 218 231 238 244 250 258 250 258 270 277
211 222 241 253 261 268 263 239 58 325 195 190 174 132 118 138 148 152 162 171 170 168 168 166 163 166 169 175 181 183 185 189 192 196 199 204 209 205 210 219 231 238 245 252 257 265 265 270 277
236 235 234 245 247 256 271 251 91 82 95 104 96 99 83 78 112 124 128 145 161 164 163 165 168 171 173 174 176 180 184 188 190 193 199 204 211 216 211 223 235 246 251 258 261 263 260 262 268